THOR ABLESTAR DEB, 2432

Orbit data source: Space-Track

THOR ABLESTAR DEB, 2432 is space debris in LEO originally from a launch on Thu, 05 Dec 1963 UTC launched from the Air Force Western Test Range (AFWTR). Debris objects in space refer to the collection of defunct objects orbiting the Earth. Examples of debris include non-operational satellites, rocket bodies, and fragments generated from explosions, collisions, or faulty payload assembly.

Loading next visibility...
Identifier
2432, 1963-049G
Orbit
LEO
Last TLE update
13 hours ago
Origin
Manufacturer
Unknown
Mission
Spacecraft
Bus & Motor
Unknown
Mass
Unknown
Launch date (UTC)
1963-12-05 (62 years ago)
Launch vehicle
Unknown
Launch site
Air Force Western Test Range (AFWTR)
Object type
Payload
Rocket body
Debris
Shape & HBR
Unknown
Radar Cross Section
Medium (>0.1 m² and <1 m²)

Expand to show TLE details & history

TLE from 13 hours ago
0 THOR ABLESTAR DEB
1 02432U 63049G   25193.94814057  .00000090  00000-0  12841-3 0  9999
2 02432  89.9172  73.4429 0035571 129.4595 247.6700 13.48192396 26992
Epoch: 2025-07-12T22:45Z
TLE epoch observation values (Epoch: 2025-07-12T22:45:19.345Z)
Latitude
16.73649°
Longitude
161.05867°
Altitude
1,091.405 km
Speed
7.303 km/s
True Right ascension
04h 53m 52s
True Declination
16° 38' 46"
Sunlit
Object was in daylight at epoch
Visualization orbit readout
Latitude
49.15318°
Longitude
161.1248°
Altitude
1,081.536 km
Speed
7.319 km/s
Apparent Right ascension
08h 21m 53s
Apparent Declination
14° 22' 25"
Sunlit
Object is in daylight
Visualization observer readout
Local Sidereal Time
23:48:56
Azimuth
52.917° ENE
Elevation
-17.49°
Doppler factor
1
Orbital elements
Apogee altitude
1,102.484 km
Perigee altitude
1,049.454 km
Semi-major axis
7,454.106 km
Eccentricity
0.00356
Inclination
89.9172°
RAAN
73.4429°
Arg. of periapsis
129.4595°
True anomaly
Unknown
Mean anomaly
247.67°
Eccentric anomaly
Unknown
Mean motion
3.37248 °/min
Orbital period
106.75 mins
BSTAR
0.00012841
Loading maneuver chart data...
Loading SW <> Apogee altitude chart data...
Loading historical data...
Loading historical data...
Loading historical data...
Loading historical data...
Loading historical data...
Loading historical data...
Loading historical data...

THOR ABLESTAR DEB Visibility forecast

Observer location: undefined°, undefined°

Span
Click to sort rows by Start time (UTC) header in descending order
Start Az.
Max El. time (UTC)
Max El. Az.
Max El.
End time (UTC)
End Az.
8 mins2025-07-13 14:51:01.936Z109.956° ESE2025-07-13 14:55:01.936Z71.764° E17.149°2025-07-13 14:59:01.936Z33.424° NE
11 mins2025-07-13 16:36:01.936Z187.165° SSW2025-07-13 16:41:01.936Z277.848° WNW43.579°2025-07-13 16:47:01.936Z353.219° N
11 mins2025-07-14 03:47:01.936Z17.998° NNE2025-07-14 03:52:01.936Z95.557° ESE37.693°2025-07-14 03:58:01.936Z162.767° S
9 mins2025-07-14 05:34:01.936Z329.352° NNW2025-07-14 05:38:01.936Z284.381° WNW22.789°2025-07-14 05:43:01.936Z233.663° WSW
|